Eastsound, WA

6:48 AM PST on December 04, 2016 (GMT -0800)
Orcas Island

Weather History for KORS - March, 2013

Change the Weather History Date:

Friday, March 22, 2013

  Actual Average (KBLI) Record (KBLI)
Temperature  
Mean Temperature 37 °F 45 °F  
Max Temperature 42 °F 53 °F 63 °F (2004)
Min Temperature 32 °F 37 °F 25 °F (1966)
Degree Days  
Heating Degree Days 28 20  
Month to date heating degree days 471  
Cooling Degree Days 0 0  
Month to date cooling degree days 0  
Year to date cooling degree days 0  
Moisture  
Dew Point 31 °F    
Average Humidity 73    
Maximum Humidity 100    
Minimum Humidity 61    
Precipitation  
Precipitation 0.00 in 0.11 in 0.72 in (1993)
Month to date precipitation 2.24  
Year to date precipitation 9.93  
Sea Level Pressure  
Sea Level Pressure 30.28 in    
Wind  
Wind Speed 3 mph (NW)    
Max Wind Speed 9 mph    
Max Gust Speed -    
Visibility 10 miles    
Events Rain    
T = Trace of Precipitation, MM = Missing Value Source: NWS Daily Summary

Daily Weather History Graph

Daily Weather History Graph

Search for Another Location

Airport or City:

Trip Planner

Search our weather history database for the weather conditions in past years. The results will help you decide how hot, cold, wet, or windy it might be!

Date:

Astronomy

Mar. 22, 2013 Rise Set
Actual Time 7:09 AM PDT 7:28 PM PDT
Civil Twilight 6:38 AM PDT 7:59 PM PDT
Nautical Twilight 6:00 AM PDT 8:36 PM PDT
Astronomical Twilight 5:22 AM PDT 9:15 PM PDT
Moon 2:41 PM PDT (3/22) 4:34 AM PDT (3/22)
Length of Visible Light 13h 21m
Length of Day
12h 18m
Waxing Gibbous, 78% of the Moon is Illuminated
Mar 22
Waxing Gibbous
Mar 27
Full
Apr 2
Last Quarter
Apr 10
New
Apr 18
First Quarter

Hourly Weather History & Observations

Time (PDT) Temp. Windchill Dew Point Humidity Pressure Visibility Wind Dir Wind Speed Gust Speed Precip Events Conditions
12:15 AM 37.4 °F - 32.0 °F 81% 30.18 in 10.0 mi Calm Calm - N/A   Scattered Clouds
12:35 AM 39.2 °F 37.0 °F 32.0 °F 75% 30.18 in 10.0 mi West 3.5 mph - N/A   Partly Cloudy
12:55 AM 39.2 °F - 32.0 °F 75% 30.19 in 10.0 mi Calm Calm - N/A   Mostly Cloudy
1:15 AM 39.2 °F - 32.0 °F 75% 30.19 in 10.0 mi Calm Calm - N/A   Mostly Cloudy
1:35 AM 39.2 °F - 32.0 °F 75% 30.19 in 10.0 mi Calm Calm - N/A   Overcast
1:55 AM 39.2 °F 34.2 °F 32.0 °F 75% 30.19 in 10.0 mi NW 6.9 mph - N/A   Mostly Cloudy
2:15 AM 39.2 °F 33.6 °F 32.0 °F 75% 30.19 in 10.0 mi NW 8.1 mph - N/A   Partly Cloudy
2:35 AM 39.2 °F 35.9 °F 32.0 °F 75% 30.20 in 10.0 mi WNW 4.6 mph - N/A   Partly Cloudy
2:55 AM 39.2 °F - 30.2 °F 70% 30.20 in 10.0 mi Calm Calm - N/A   Partly Cloudy
3:15 AM 39.2 °F - 32.0 °F 75% 30.20 in 10.0 mi Calm Calm - N/A   Mostly Cloudy
3:35 AM 39.2 °F - 32.0 °F 75% 30.21 in 10.0 mi Calm Calm - N/A   Mostly Cloudy
3:55 AM 39.2 °F 35.9 °F 30.2 °F 70% 30.21 in 10.0 mi WSW 4.6 mph - N/A   Mostly Cloudy
4:15 AM 39.2 °F 37.0 °F 30.2 °F 70% 30.21 in 10.0 mi WNW 3.5 mph - N/A   Scattered Clouds
4:35 AM 37.4 °F 33.8 °F 30.2 °F 75% 30.21 in 10.0 mi West 4.6 mph - N/A   Partly Cloudy
4:55 AM 37.4 °F - 30.2 °F 75% 30.21 in 10.0 mi Calm Calm - N/A   Partly Cloudy
5:15 AM 37.4 °F 34.9 °F 30.2 °F 75% 30.22 in 10.0 mi West 3.5 mph - N/A   Partly Cloudy
5:35 AM 37.4 °F - 28.4 °F 70% 30.22 in 10.0 mi Calm Calm - N/A   Clear
5:55 AM 37.4 °F - 28.4 °F 70% 30.22 in 10.0 mi Calm Calm - N/A   Clear
6:15 AM 37.4 °F - 28.4 °F 70% 30.23 in 10.0 mi Calm Calm - N/A   Clear
6:35 AM 37.4 °F - 28.4 °F 70% 30.23 in 10.0 mi Calm Calm - N/A   Clear
6:55 AM 35.6 °F 32.8 °F 28.4 °F 75% 30.23 in 10.0 mi SW 3.5 mph - N/A   Clear
7:15 AM 35.6 °F 31.7 °F 28.4 °F 75% 30.23 in 10.0 mi West 4.6 mph - N/A   Clear
7:35 AM 35.6 °F - 28.4 °F 75% 30.24 in 10.0 mi Calm Calm - N/A   Clear
7:55 AM 33.8 °F - 28.4 °F 81% 30.24 in 10.0 mi Calm Calm - N/A   Clear
8:15 AM 39.2 °F - 28.4 °F 65% 30.25 in 10.0 mi Calm Calm - N/A   Mostly Cloudy
8:35 AM 39.2 °F 35.9 °F 28.4 °F 65% 30.25 in 10.0 mi WNW 4.6 mph - N/A   Overcast
8:55 AM 39.2 °F - 28.4 °F 65% 30.25 in 10.0 mi Calm Calm - N/A   Overcast
9:15 AM 39.2 °F 35.9 °F 28.4 °F 65% 30.26 in 10.0 mi West 4.6 mph - N/A   Overcast
9:35 AM 39.2 °F 35.9 °F 28.4 °F 65% 30.26 in 10.0 mi West 4.6 mph - N/A   Overcast
9:55 AM 39.2 °F - 26.6 °F 61% 30.27 in 10.0 mi Calm Calm - N/A   Mostly Cloudy
10:15 AM 41.0 °F 36.4 °F 28.4 °F 61% 30.28 in 10.0 mi NW 6.9 mph - N/A   Mostly Cloudy
10:35 AM 41.0 °F 36.4 °F 28.4 °F 61% 30.28 in 10.0 mi WNW 6.9 mph - N/A   Mostly Cloudy
11:15 AM 41.0 °F 38.0 °F 28.4 °F 61% 30.28 in 10.0 mi West 4.6 mph - N/A   Scattered Clouds
11:35 AM 41.0 °F 36.4 °F 28.4 °F 61% 30.29 in 10.0 mi NNW 6.9 mph - N/A   Scattered Clouds
11:55 AM 41.0 °F 38.0 °F 28.4 °F 61% 30.29 in 10.0 mi NW 4.6 mph - N/A   Scattered Clouds
12:15 PM 41.0 °F 37.1 °F 28.4 °F 61% 30.29 in 10.0 mi NNW 5.8 mph - N/A   Mostly Cloudy
12:35 PM 41.0 °F 37.1 °F 30.2 °F 65% 30.30 in 10.0 mi NNW 5.8 mph - N/A Rain Light Rain
12:55 PM 41.0 °F 37.1 °F 30.2 °F 65% 30.30 in 10.0 mi North 5.8 mph - N/A   Mostly Cloudy
1:15 PM 41.0 °F 35.2 °F 30.2 °F 65% 30.30 in 10.0 mi NW 9.2 mph - N/A   Mostly Cloudy
1:35 PM 41.0 °F 36.4 °F 32.0 °F 70% 30.31 in 10.0 mi NW 6.9 mph - N/A   Mostly Cloudy
1:55 PM 41.0 °F 36.4 °F 32.0 °F 70% 30.31 in 10.0 mi NNW 6.9 mph - N/A   Mostly Cloudy
2:15 PM 41.0 °F 35.8 °F 32.0 °F 70% 30.31 in 10.0 mi NNW 8.1 mph - N/A   Mostly Cloudy
2:35 PM 41.0 °F 36.4 °F 32.0 °F 70% 30.31 in 10.0 mi NNW 6.9 mph - N/A   Mostly Cloudy
2:55 PM 42.8 °F 39.3 °F 32.0 °F 66% 30.31 in 10.0 mi North 5.8 mph - N/A   Mostly Cloudy
3:15 PM 42.8 °F 39.3 °F 32.0 °F 66% 30.32 in 10.0 mi NNW 5.8 mph - N/A   Partly Cloudy
3:35 PM 42.8 °F 39.3 °F 30.2 °F 61% 30.32 in 10.0 mi North 5.8 mph - N/A   Clear
3:55 PM 42.8 °F 39.3 °F 32.0 °F 66% 30.31 in 10.0 mi North 5.8 mph - N/A   Clear
4:15 PM 42.8 °F 39.3 °F 32.0 °F 66% 30.32 in 10.0 mi North 5.8 mph - N/A   Clear
4:35 PM 42.8 °F 38.6 °F 32.0 °F 66% 30.32 in 10.0 mi North 6.9 mph - N/A   Clear
4:55 PM 42.8 °F 39.3 °F 32.0 °F 66% 30.32 in 10.0 mi North 5.8 mph - N/A   Clear
5:15 PM 42.8 °F 39.3 °F 30.2 °F 61% 30.33 in 10.0 mi North 5.8 mph - N/A   Clear
5:35 PM 42.8 °F 40.1 °F 30.2 °F 61% 30.33 in 10.0 mi North 4.6 mph - N/A   Clear
5:55 PM 42.8 °F - 30.2 °F 61% 30.33 in 10.0 mi Calm Calm - N/A   Clear
6:15 PM 42.8 °F - 30.2 °F 61% 30.32 in 10.0 mi Calm Calm - N/A   Clear
6:35 PM 41.0 °F - 30.2 °F 65% 30.32 in 10.0 mi Calm Calm - N/A   Clear
6:55 PM 41.0 °F - 32.0 °F 70% 30.32 in 10.0 mi Calm Calm - N/A   Clear
7:15 PM 39.2 °F - 32.0 °F 75% 30.32 in 10.0 mi Calm Calm - N/A   Clear
7:35 PM 37.4 °F - 32.0 °F 81% 30.32 in 8.0 mi Calm Calm - N/A   Clear
7:55 PM 37.4 °F - 32.0 °F 81% 30.33 in 10.0 mi North - - N/A   Clear
8:15 PM 35.6 °F - 32.0 °F 87% 30.33 in 10.0 mi Calm Calm - N/A   Clear
8:35 PM 35.6 °F - 32.0 °F 87% 30.34 in 10.0 mi North - - N/A   Clear
8:55 PM 35.6 °F - 32.0 °F 87% 30.34 in 10.0 mi Calm Calm - N/A   Clear
9:15 PM 33.8 °F - 32.0 °F 93% 30.35 in 10.0 mi Calm Calm - N/A   Clear
9:35 PM 33.8 °F - 32.0 °F 93% 30.36 in 10.0 mi Calm Calm - N/A   Clear
10:15 PM 33.8 °F - 32.0 °F 93% 30.35 in 10.0 mi Calm Calm - N/A   Clear
10:35 PM 32.0 °F - 32.0 °F 100% 30.36 in 10.0 mi Calm Calm - N/A   Clear
10:55 PM 32.0 °F - 32.0 °F 100% 30.35 in 10.0 mi Calm Calm - N/A   Clear
11:15 PM 32.0 °F - 30.2 °F 93% 30.36 in 10.0 mi Calm Calm - N/A   Clear
11:35 PM 32.0 °F - 30.2 °F 93% 30.36 in 10.0 mi Calm Calm - N/A   Clear
11:55 PM 32.0 °F - 32.0 °F 100% 30.36 in 10.0 mi Calm Calm - N/A   Clear